When you browse on this site, cookies collect data to enhance your experience and personalize the content and advertising you see.
Visit our Privacy Policy to learn more. By continuing to use the site, you agree to this use of cookies and data.
  • In Romania
  • List of Countries
  • For 7 days
  • Water Temperature
  • Satellite Maps
  • Weather Map
  • Weather Widgets
  • user-avatar
    Login

    Hourly Weather Haldwani

    Today, 22 April, Monday

    Time Temperature Precipitation Wind Pressure Humidity
    00:00 +26°C° 0 mm 2 mps 719 mmHg 42%
    01:00 +25°C° 0 mm 2 mps 719 mmHg 44%
    02:00 +25°C° 0 mm 2 mps 719 mmHg 46%
    03:00 +25°C° 0 mm 2 mps 719 mmHg 47%
    04:00 +25°C° 0 mm 2 mps 719 mmHg 48%
    05:00 +23°C° 0 mm 2 mps 719 mmHg 49%
    06:00 +26°C° 0 mm 1 mps 720 mmHg 42%
    07:00 +29°C° 0 mm 1 mps 720 mmHg 34%
    08:00 +30°C° 0 mm 0 mps 721 mmHg 27%
    09:00 +33°C° 0 mm 1 mps 721 mmHg 25%
    10:00 +35°C° 0 mm 1 mps 721 mmHg 23%
    11:00 +36°C° 0 mm 2 mps 721 mmHg 22%
    12:00 +36°C° 0 mm 2 mps 721 mmHg 21%
    13:00 +37°C° 0 mm 3 mps 720 mmHg 21%
    14:00 +37°C° 0 mm 3 mps 720 mmHg 21%
    15:00 +37°C° 0 mm 3 mps 719 mmHg 22%
    16:00 +36°C° 0 mm 2 mps 719 mmHg 23%
    17:00 +35°C° 0 mm 2 mps 718 mmHg 25%
    18:00 +32°C° 0 mm 2 mps 719 mmHg 28%
    19:00 +30°C° 0 mm 2 mps 719 mmHg 31%
    20:00 +29°C° 0 mm 2 mps 719 mmHg 34%
    21:00 +28°C° 0 mm 2 mps 719 mmHg 36%
    22:00 +28°C° 0 mm 2 mps 720 mmHg 37%
    23:00 +28°C° 0 mm 2 mps 720 mmHg 38%

    Tomorrow, 23 April, Tuesday

    Time Temperature Precipitation Wind Pressure Humidity
    00:00 +27°C° 0 mm 2 mps 720 mmHg 39%
    01:00 +27°C° 0 mm 2 mps 720 mmHg 41%
    02:00 +26°C° 0 mm 2 mps 720 mmHg 42%
    03:00 +26°C° 0 mm 2 mps 720 mmHg 42%
    04:00 +26°C° 0 mm 2 mps 720 mmHg 43%
    05:00 +25°C° 0 mm 2 mps 720 mmHg 43%
    06:00 +28°C° 0 mm 3 mps 721 mmHg 38%
    07:00 +30°C° 0 mm 3 mps 721 mmHg 34%
    08:00 +33°C° 0 mm 3 mps 722 mmHg 29%
    09:00 +35°C° 0 mm 3 mps 722 mmHg 27%
    10:00 +36°C° 0 mm 3 mps 721 mmHg 25%
    11:00 +38°C° 0 mm 3 mps 721 mmHg 23%
    12:00 +38°C° 0 mm 3 mps 721 mmHg 22%
    13:00 +38°C° 0 mm 2 mps 720 mmHg 22%
    14:00 +39°C° 0 mm 2 mps 720 mmHg 21%
    15:00 +38°C° 0 mm 2 mps 720 mmHg 23%
    16:00 +38°C° 0 mm 2 mps 720 mmHg 24%
    17:00 +36°C° 0 mm 1 mps 720 mmHg 25%
    18:00 +35°C° 0 mm 2 mps 720 mmHg 29%
    19:00 +32°C° 0 mm 2 mps 721 mmHg 32%
    20:00 +30°C° 0 mm 2 mps 721 mmHg 35%
    21:00 +30°C° 0 mm 2 mps 721 mmHg 36%
    22:00 +29°C° 0 mm 2 mps 721 mmHg 37%
    23:00 +29°C° 0 mm 2 mps 721 mmHg 37%

    Day after tomorrow, 24 April, Wednesday

    Time Temperature Precipitation Wind Pressure Humidity
    00:00 +29°C° 0 mm 2 mps 721 mmHg 39%
    01:00 +28°C° 0 mm 2 mps 721 mmHg 40%
    02:00 +28°C° 0 mm 2 mps 721 mmHg 41%
    03:00 +28°C° 0 mm 2 mps 721 mmHg 43%
    04:00 +27°C° 0 mm 2 mps 721 mmHg 44%
    05:00 +27°C° 0 mm 2 mps 721 mmHg 46%
    06:00 +29°C° 0 mm 2 mps 722 mmHg 41%
    07:00 +33°C° 0 mm 3 mps 722 mmHg 36%
    08:00 +35°C° 0 mm 3 mps 723 mmHg 32%
    09:00 +36°C° 0 mm 3 mps 723 mmHg 30%
    10:00 +37°C° 0 mm 3 mps 723 mmHg 28%
    11:00 +39°C° 0 mm 3 mps 723 mmHg 25%
    12:00 +39°C° 0 mm 3 mps 722 mmHg 25%
    13:00 +39°C° 0 mm 2 mps 722 mmHg 25%
    14:00 +40°C° 0 mm 2 mps 721 mmHg 24%
    15:00 +39°C° 0 mm 2 mps 721 mmHg 25%
    16:00 +37°C° 0 mm 1 mps 720 mmHg 26%
    17:00 +37°C° 0 mm 1 mps 720 mmHg 27%
    18:00 +36°C° 0.1 mm 2 mps 720 mmHg 31%
    19:00 +34°C° 0.1 mm 2 mps 721 mmHg 35%
    20:00 +31°C° 0.1 mm 2 mps 721 mmHg 40%
    21:00 +31°C° 0 mm 2 mps 721 mmHg 40%
    22:00 +31°C° 0 mm 2 mps 721 mmHg 40%
    23:00 +30°C° 0 mm 2 mps 721 mmHg 41%

    25 April, Thursday

    Time Temperature Precipitation Wind Pressure Humidity
    00:00 +30°C° 0 mm 2 mps 721 mmHg 42%
    01:00 +29°C° 0 mm 2 mps 721 mmHg 43%
    02:00 +29°C° 0 mm 2 mps 720 mmHg 44%
    03:00 +28°C° 0 mm 2 mps 721 mmHg 45%
    04:00 +28°C° 0 mm 2 mps 721 mmHg 45%
    05:00 +28°C° 0 mm 2 mps 721 mmHg 46%
    06:00 +30°C° 0 mm 2 mps 721 mmHg 41%
    07:00 +34°C° 0 mm 2 mps 722 mmHg 37%
    08:00 +36°C° 0 mm 2 mps 722 mmHg 32%
    09:00 +37°C° 0 mm 2 mps 723 mmHg 29%
    10:00 +39°C° 0 mm 2 mps 723 mmHg 27%
    11:00 +40°C° 0 mm 2 mps 723 mmHg 25%
    12:00 +40°C° 0 mm 2 mps 722 mmHg 23%
    13:00 +41°C° 0 mm 2 mps 721 mmHg 22%
    14:00 +41°C° 0 mm 2 mps 721 mmHg 21%
    15:00 +41°C° 0 mm 2 mps 720 mmHg 20%
    16:00 +40°C° 0 mm 2 mps 720 mmHg 20%
    17:00 +40°C° 0 mm 2 mps 719 mmHg 20%
    18:00 +38°C° 0 mm 2 mps 720 mmHg 22%
    19:00 +36°C° 0 mm 2 mps 720 mmHg 25%
    20:00 +34°C° 0 mm 2 mps 721 mmHg 27%
    21:00 +32°C° 0 mm 2 mps 721 mmHg 28%
    22:00 +31°C° 0 mm 2 mps 721 mmHg 29%
    23:00 +31°C° 0 mm 2 mps 721 mmHg 31%

    26 April, Friday

    Time Temperature Precipitation Wind Pressure Humidity
    00:00 +30°C° 0 mm 2 mps 720 mmHg 31%
    01:00 +30°C° 0 mm 2 mps 720 mmHg 32%
    02:00 +29°C° 0 mm 3 mps 719 mmHg 32%
    03:00 +29°C° 0 mm 2 mps 719 mmHg 32%
    04:00 +29°C° 0 mm 2 mps 719 mmHg 32%
    05:00 +28°C° 0 mm 2 mps 719 mmHg 32%
    06:00 +31°C° 0 mm 2 mps 720 mmHg 28%
    07:00 +35°C° 0 mm 2 mps 721 mmHg 25%
    08:00 +37°C° 0 mm 1 mps 721 mmHg 21%
    09:00 +39°C° 0 mm 1 mps 721 mmHg 19%
    10:00 +41°C° 0 mm 1 mps 721 mmHg 16%
    11:00 +42°C° 0 mm 1 mps 721 mmHg 14%
    12:00 +43°C° 0 mm 2 mps 720 mmHg 13%
    13:00 +44°C° 0 mm 3 mps 719 mmHg 13%
    14:00 +44°C° 0 mm 4 mps 719 mmHg 12%
    15:00 +43°C° 0 mm 3 mps 718 mmHg 12%
    16:00 +43°C° 0 mm 3 mps 718 mmHg 13%
    17:00 +42°C° 0 mm 3 mps 718 mmHg 14%
    18:00 +38°C° 0 mm 3 mps 718 mmHg 15%
    19:00 +36°C° 0 mm 3 mps 719 mmHg 17%
    20:00 +34°C° 0 mm 2 mps 720 mmHg 19%
    21:00 +32°C° 0 mm 2 mps 720 mmHg 19%
    22:00 +31°C° 0 mm 2 mps 720 mmHg 20%
    23:00 +31°C° 0 mm 2 mps 720 mmHg 20%

    27 April, Saturday

    Time Temperature Precipitation Wind Pressure Humidity
    00:00 +30°C° 0 mm 2 mps 720 mmHg 21%
    01:00 +30°C° 0 mm 2 mps 719 mmHg 21%
    02:00 +30°C° 0 mm 2 mps 719 mmHg 22%
    03:00 +29°C° 0 mm 2 mps 719 mmHg 22%
    04:00 +29°C° 0 mm 2 mps 719 mmHg 22%
    05:00 +28°C° 0 mm 2 mps 719 mmHg 23%
    06:00 +31°C° 0 mm 2 mps 719 mmHg 20%
    07:00 +35°C° 0 mm 2 mps 720 mmHg 17%
    08:00 +37°C° 0 mm 1 mps 720 mmHg 15%
    09:00 +39°C° 0 mm 1 mps 720 mmHg 13%
    10:00 +41°C° 0 mm 2 mps 720 mmHg 11%
    11:00 +43°C° 0 mm 2 mps 720 mmHg 9%
    12:00 +44°C° 0 mm 3 mps 720 mmHg 8%
    13:00 +44°C° 0 mm 3 mps 719 mmHg 7%
    14:00 +45°C° 0 mm 4 mps 718 mmHg 6%
    15:00 +44°C° 0 mm 4 mps 718 mmHg 6%
    16:00 +43°C° 0 mm 4 mps 718 mmHg 7%
    17:00 +42°C° 0 mm 4 mps 718 mmHg 7%
    18:00 +39°C° 0 mm 3 mps 718 mmHg 9%
    19:00 +36°C° 0 mm 3 mps 719 mmHg 11%
    20:00 +34°C° 0 mm 3 mps 719 mmHg 13%
    21:00 +33°C° 0 mm 3 mps 719 mmHg 14%
    22:00 +33°C° 0 mm 3 mps 719 mmHg 15%
    23:00 +33°C° 0 mm 3 mps 720 mmHg 16%
    Show more